全球星 M060星 (GLOBALSTAR M060)

导读 | 星芒AI

GLOBALSTAR M060 是一颗由 Globalstar 公司运营的低轨通信卫星,属于其第二代卫星星座(M-CLASS)的一部分。该卫星设计用于提供移动语音和数据通信服务,主要面向偏远地区和海上用户。M060 卫星采用先进的小型化技术,运行在约 1414 公里的近地轨道,支持全球覆盖。其部署旨在增强 Globalstar 的通信能力,提高服务可靠性和网络效率,满足日益增长的卫星通信需求。

基本信息
目录编号:
26083
目录名称:
GLOBALSTAR M060
国际标识:
2000-008C
轨道中心:
EARTH
卫星名称:
全球星 M060星
卫星全名:
全球星 M060星 (GLOBALSTAR M060)
卫星状态:
在轨 (已飞行9443 天)
发射日期:
2000-02-08 UTC
国别 :
(GLOB)
星等 :
--
轨道信息
数据来源 国际轨道数据 AOE轨道数据
星历时间 2025-12-15T11:55:51+0800
21小时前
查看轨道信息
2025-12-13T07:00:00+0800
3天前
查看轨道信息
半长轴 7980.84km 7980.843km
偏心率 0.0003497 0.0003449
轨道倾角 52.003° 52.001°
近地点辐角 118.162° 116.079°
升交点赤经 269.193° 275.366°
平近点角 22.849° 72.617°
近地点 1599.914km 1599.955km
远地点 1605.496km 1605.461km
周期 118.259分钟 118.259分钟
每日圈数 12.176709 12.176701
详细信息
固有亮度:
5
最大亮度:
7.9
平衡模式:
三轴稳定
覆盖范围:
全球
运营商:
全球星公司
运营商所在国:
美国
使用方式:
暂无
卫星简介
全球星星座由48颗卫星加8颗备份星组成。这些卫星分布在8个倾角为52度的圆形轨道平面上,每个轨道平面6颗卫星,另有1 颗备用星。轨道高度约为1414km,传输时延和处理时延小于300ms,整个系统的覆盖区为南北纬70度以内的地区。该卫星已退役。
2D轨道图
3D轨道图
轨道高度分析图
轨道倾角分析图
轨道综合分析图
查看轨道综合分析图